Regional Weather Roundup
Issued by NWS

Home | Current Version | Previous Version | Text Only | Print | Product List | Glossary Off
Versions: 1 2 3 4 5 6 7 8 9 10 11 12 13 14 15 16 17 18 19 20 21 22 23 24 25 26 27 28 29 30 31 32 33 34 35 36 37 38 39 40 41 42 43 44 45 46 47 48

000
ASUS43 KDMX 290607
RWRIA

WEATHER ROUNDUP FOR IOWA
NATIONAL WEATHER SERVICE DES MOINES IA
100 AM CDT FRI MAY 29 2015

NOTE: "FAIR" INDICATES FEW OR NO CLOUDS BELOW 12,000 FEET WITH NO
SIGNIFICANT WEATHER AND/OR OBSTRUCTIONS TO VISIBILITY.

* - THESE STATIONS ARE NOT NWS STATIONS...THUS NOT UNDER NWS
QUALITY CONTROL.  THEY ALSO DO NOT REPORT WEATHER SUCH
AS PRECIPITATION OR FOG.

IAZ001>003-012>014-020>022-031>034-043>046-290700-
   NORTHWEST IOWA

CITY           SKY/WX    TMP DP  RH WIND       PRES   REMARKS
CARROLL *      CLOUDY    66  63  88 S12       29.94S
CHEROKEE *     CLOUDY    65  64  97 S8        29.91F
DENISON *      CLEAR     66  66 100 S14       29.91S
LE MARS *      CLOUDY    68  64  88 S10       29.90S
ORANGE CITY *  PTCLDY    64  61  88 S10       29.90F
SHELDON *      CLOUDY    64  64 100 S17G37    29.88F FOG
SIOUX CITY     MOCLDY    67  62  84 SE8       29.88F
6HR MIN TEMP:  67; 6HR MAX TEMP:  72;

SPENCER        CLOUDY    66  63  90 S10       29.91F
6HR MIN TEMP:  66; 6HR MAX TEMP:  69; 6HR PCP: TRACE;

STORM LAKE *   PTCLDY    63  63 100 S10       29.94S
$$

IAZ055>058-069>071-079>083-090>094-290700-
   SOUTHWEST IOWA

CITY           SKY/WX    TMP DP  RH WIND       PRES   REMARKS
ATLANTIC *     CLEAR     66  64  94 S8        29.95S
AUDUBON *      CLEAR     64  61  88 S6        29.96F
CLARINDA *     PTCLDY    64  64 100 S5        29.98R
COUNCIL BLFS * PTCLDY    66  66 100 S13       29.94R
CRESTON *      CLEAR     63  63 100 S8        29.98R
HARLAN  *      MOCLDY    66  66 100 S8        29.98S
LAMONI         MOCLDY    67  63  87 S7        29.98F
6HR MIN TEMP:  67; 6HR MAX TEMP:  75;

RED OAK *      PTCLDY    66  64  94 S8        29.95R
SHENANDOAH *   MOCLDY    66  64  94 S13       29.95R
$$

IAZ047>049-059>061-072>074-084-290700-
   CENTRAL IOWA

CITY           SKY/WX    TMP DP  RH WIND       PRES   REMARKS
AMES           PTCLDY    63  62  97 S5        29.96S
6HR MIN TEMP:  63; 6HR MAX TEMP:  71;

ANKENY *       CLEAR     64  64 100 S5        29.96F
CHARITON *       N/A     64  63  94 S8        29.98F
DES MOINES     MOCLDY    65  62  90 S7        29.96S
6HR MIN TEMP:  65; 6HR MAX TEMP:  74;

GRINNELL*      CLOUDY    64  63  94 S6        29.99F
KNOXVILLE *    CLOUDY    64  63  94 S7        29.96F
MARSHALLTOWN   CLOUDY    65  63  93 S9        29.96F
6HR MIN TEMP:  65; 6HR MAX TEMP:  74;

PELLA *        CLOUDY    64  64 100 SE5       29.98F
PERRY *          N/A     64  63  97 S5        29.95F
$$

IAZ004>006-015-016-023>025-035-036-290700-
   NORTH CENTRAL IOWA

CITY           SKY/WX    TMP DP  RH WIND       PRES   REMARKS
ALGONA *       CLOUDY    66  64  94 S10       29.93S
CLARION *      CLOUDY    66  63  88 S14       29.94S
ESTHERVILLE    CLOUDY    65  62  90 S13       29.91F
6HR MIN TEMP:  64; 6HR MAX TEMP:  70;

FORT DODGE *   CLOUDY    66  63  88 S10       29.95S
MASON CITY     CLOUDY    67  61  81 S8        29.96S
6HR MIN TEMP:  67; 6HR MAX TEMP:  77;

FOREST CITY *  CLOUDY    64  61  88 S9        29.94S
IOWA FALLS *   CLOUDY    64  63  94 S8        29.97S
$$

IAZ007>011-017>019-026>030-037>042-050>054-066-290700-
   NORTHEAST IOWA

CITY           SKY/WX    TMP DP  RH WIND       PRES   REMARKS
CEDAR RAPIDS   CLOUDY    65  63  93 S6        29.99S
6HR MIN TEMP:  65; 6HR MAX TEMP:  77; 6HR PCP: TRACE;

CHARLES CITY * CLOUDY    66  64  94 S15       29.97S
CLINTON *      CLOUDY    66  57  72 S3        30.04S
DECORAH *      CLOUDY    64  57  77 S7        29.98S
DUBUQUE        LGT RAIN  65  59  81 SW5       30.02S
6HR MIN TEMP:  63; 6HR MAX TEMP:  75; 6HR PCP: TRACE;

MONTICELLO *   MOCLDY    66  64  94 CALM      30.02R
OELWEIN *      CLOUDY    64  63  94 S9        30.00S
WATERLOO       CLOUDY    65  62  90 S9        29.97S
6HR MIN TEMP:  65; 6HR MAX TEMP:  75; 6HR PCP: TRACE;

$$

IAZ064-065-067-068-078-290700-
   EAST CENTRAL IOWA

CITY           SKY/WX    TMP DP  RH WIND       PRES   REMARKS
DAVENPORT      LGT RAIN  67  61  81 S6        30.02S
6HR MIN TEMP:  66; 6HR MAX TEMP:  80; 6HR PCP: TRACE;

IOWA CITY      CLOUDY    66  63  90 SE5       30.01S
6HR MIN TEMP:  65; 6HR MAX TEMP:  77;

MT. PLEASANT * CLOUDY    64  63  97 SE3       30.00F
MUSCATINE *    CLOUDY    66  63  88 CALM      30.01F
QUAD CITIES    CLOUDY    66  61  84 E3        30.01S
6HR MIN TEMP:  64; 6HR MAX TEMP:  78;

$$

IAZ062-063-075>077-085>089-095>099-290700-
   SOUTHEAST IOWA

CITY           SKY/WX    TMP DP  RH WIND       PRES   REMARKS
BURLINGTON     CLOUDY    66  64  93 SE5       30.01F
6HR MIN TEMP:  65; 6HR MAX TEMP:  74;

FAIRFIELD *    CLOUDY    66  63  88 S8        30.00S
FORT MADISON * CLEAR     66  63  88 SE8       30.01F
KEOKUK *       CLEAR     66  64  94 SE6       30.00F
OSKALOOSA *    CLOUDY    64  62  94 S7        30.00S
CENTERVILLE *  LGT RAIN  64  64 100 S6        30.01S
OTTUMWA        CLOUDY    64  63  96 S8        29.99R
6HR MIN TEMP:  64; 6HR MAX TEMP:  66; 6HR PCP:  0.05;

WASHINGTON *   CLOUDY    64  63  94 S6        30.01F
$$

ABBREVIATIONS USED IN REMARKS
   TC - TEMPERATURES IN CELSIUS
  WCI - WIND CHILL INDEX
   HX - HEAT INDEX
  VSB - VISIBILITY
$$




USA.gov is the U.S. government's official web portal to all federal, state and local government web resources and services.